Overview Statistics Trail Chart Weather Telemetry Raw packets
 

This is the latest recevied weather packets stored in our database for station/object OK1TBM-13. If no packets are shown the sender has not sent any weather packets the latest 10 day(s).

<< 62 63 64 65 66 67 68 >>
Time Temp. Humidity Pressure Rain* Wind** Luminosity Snow
1788080103 25.56° C 50% 1014.6 hPa 0 mm - 367 W/m² -
1788079801 25.56° C 49% 1014.6 hPa 0 mm - 582 W/m² -
1788079501 26.11° C 47% 1014.6 hPa 0 mm - 666 W/m² -
1788078901 25.56° C 51% 1014.2 hPa 0 mm - 666 W/m² -
1788078602 26.11° C 51% 1014.2 hPa 0 mm - 276 W/m² -
1788078300 26.11° C 51% 1014.6 hPa 0 mm - 588 W/m² -
1788078002 25.56° C 52% 1014.6 hPa 0 mm - 521 W/m² -
1788077702 25.56° C 51% 1014.6 hPa 0 mm - 498 W/m² -
1788076801 25.56° C 54% 1014.6 hPa 0 mm - 285 W/m² -
1788076501 25.56° C 55% 1014.6 hPa 0 mm - 524 W/m² -
1788076201 25.56° C 57% 1014.6 hPa 0 mm - 100 W/m² -
1788075902 25° C 58% 1014.6 hPa 0 mm - 424 W/m² -
1788075300 24.44° C 60% 1014.6 hPa 0 mm - 410 W/m² -
1788075000 23.89° C 61% 1014.6 hPa 0 mm - 396 W/m² -
1788074701 23.33° C 60% 1014.2 hPa 0 mm - 370 W/m² -
1788074401 23.33° C 62% 1014.2 hPa 0 mm - 308 W/m² -
1788073802 22.22° C 64% 1014.2 hPa 0 mm - 80 W/m² -
1788073501 21.67° C 66% 1014.2 hPa 0 mm - 309 W/m² -
1788073207 21.11° C 69% 1014.2 hPa 0 mm - 297 W/m² -
1788072900 20.56° C 69% 1014.2 hPa 0 mm - 285 W/m² -
1788072600 20° C 71% 1014.2 hPa 0 mm - 270 W/m² -
1788072301 19.44° C 72% 1014.2 hPa 0 mm - 253 W/m² -
1788072001 19.44° C 72% 1014.2 hPa 0 mm - 233 W/m² -
1788071702 18.89° C 74% 1014.2 hPa 0 mm - 217 W/m² -
1788071402 18.33° C 76% 1014.2 hPa 0 mm - 197 W/m² -

* Rain latest hour (hover to see other rain measurements)
** Current wind speed in m/s (hover to see current wind gust speed)